Location: Songkhla
(7.2000°N, 100.6000°E)
Time: 03:20:30
(UTC+07:00)

BRICSAT 2 - Pass Details

Date: 26 June 2021
Orbit: 295 x 638 km, 28.5° (Epoch: 28 July)

Event Time Altitude Azimuth Distance (km) Brightness Sun altitude
Rises 08:54:32 0° 252° (WSW) 2,439 ? 38.1°
Reaches altitude 10° 08:56:55 10° 260° (W) 1,494 ? 38.6°
Maximum altitude 09:00:06 38° 330° (NNW) 595 ? 39.3°
Drops below altitude 10° 09:02:56 10° 42° (NE) 1,320 ? 40.0°
Sets 09:04:55 0° 50° (NE) 2,107 ? 40.4°
